Akron, OH

10:40 PM EDT on July 26, 2017 (GMT -0400)
Akron Fulton International

Weather History for KAKR - November, 2012

Change the Weather History Date:

Tuesday, November 20, 2012

  Actual Average (KCAK) Record (KCAK)
Temperature  
Mean Temperature 44 °F -  
Max Temperature 55 °F 49 °F 74 °F (1931)
Min Temperature 32 °F 31 °F 13 °F (1951)
Degree Days  
Heating Degree Days 22    
Moisture  
Dew Point 33 °F    
Average Humidity 74    
Maximum Humidity 92    
Minimum Humidity 37    
Precipitation  
Precipitation 0.00 in - - ()
Sea Level Pressure  
Sea Level Pressure 30.16 in    
Wind  
Wind Speed 0 mph (North)    
Max Wind Speed 0 mph    
Max Gust Speed -    
Visibility 8 miles    
Events      
Averages and records for this station are not official NWS values.
T = Trace of Precipitation, MM = Missing Value Source: NWS Daily Summary

Daily Weather History Graph

Daily Weather History Graph

Search for Another Location

Airport or City:

Trip Planner

Search our weather history database for the weather conditions in past years. The results will help you decide how hot, cold, wet, or windy it might be!

Date:

Astronomy

Nov. 20, 2012 Rise Set
Actual Time 7:19 AM EST 5:03 PM EST
Civil Twilight 6:49 AM EST 5:32 PM EST
Nautical Twilight 6:16 AM EST 6:06 PM EST
Astronomical Twilight 5:43 AM EST 6:39 PM EST
Moon 12:51 PM EST (11/20) No Moon Set
Length of Visible Light 10h 42m
Length of Day
9h 43m
Waxing Crescent, 51% of the Moon is Illuminated
Nov 20
Waxing Crescent
Nov 28
Full
Dec 6
Last Quarter
Dec 13
New
Dec 20
First Quarter

Hourly Weather History & Observations

Time (EST) Temp. Dew Point Humidity Pressure Visibility Wind Dir Wind Speed Gust Speed Precip Events Conditions
12:54 AM 35.1 °F 32.0 °F 89% 30.20 in 6.0 mi Calm Calm - N/A   Clear
1:54 AM 37.0 °F 33.1 °F 86% 30.19 in 6.0 mi Calm Calm - N/A   Clear
2:54 AM 35.1 °F 32.0 °F 89% 30.18 in 6.0 mi Calm Calm - N/A   Clear
3:54 AM 34.0 °F 30.9 °F 89% 30.16 in 6.0 mi Calm Calm - N/A   Clear
4:54 AM 33.1 °F 30.0 °F 89% 30.16 in 6.0 mi Calm Calm - N/A   Clear
5:54 AM 32.0 °F 30.0 °F 92% 30.17 in 5.0 mi Calm Calm - N/A   Clear
6:54 AM 33.1 °F 30.9 °F 92% 30.18 in 5.0 mi Calm Calm - N/A   Clear
7:54 AM 34.0 °F 32.0 °F 92% 30.18 in 4.0 mi Calm Calm - N/A   Partly Cloudy
8:54 AM 39.0 °F 34.0 °F 82% 30.19 in 6.0 mi Calm Calm - N/A   Haze
9:54 AM 44.1 °F 35.1 °F 71% 30.18 in 8.0 mi Calm Calm - N/A   Overcast
10:54 AM 46.9 °F 35.1 °F 63% 30.17 in 10.0 mi Calm Calm - N/A   Overcast
11:54 AM 51.1 °F 35.1 °F 54% 30.14 in 10.0 mi Calm Calm - N/A   Scattered Clouds
12:54 PM 53.1 °F 32.0 °F 45% 30.13 in 10.0 mi Calm Calm - N/A   Scattered Clouds
2:54 PM 54.0 °F 32.0 °F 43% 30.10 in 10.0 mi Calm Calm - N/A   Scattered Clouds
3:54 PM 55.9 °F 30.0 °F 37% 30.10 in 10.0 mi Calm Calm - N/A   Scattered Clouds
4:54 PM 48.0 °F 32.0 °F 54% 30.11 in 8.0 mi Calm Calm - N/A   Clear
5:54 PM 43.0 °F 32.0 °F 65% 30.12 in 9.0 mi Calm Calm - N/A   Mostly Cloudy
6:54 PM 41.0 °F 34.0 °F 76% 30.15 in 10.0 mi Calm Calm - N/A   Overcast
7:54 PM 45.0 °F 33.1 °F 63% 30.15 in 10.0 mi Calm Calm - N/A   Overcast
8:54 PM 42.1 °F 36.0 °F 79% 30.15 in 9.0 mi Calm Calm - N/A   Overcast
9:54 PM 41.0 °F 35.1 °F 79% 30.16 in 10.0 mi Calm Calm - N/A   Overcast
10:54 PM 41.0 °F 35.1 °F 79% 30.16 in 9.0 mi Calm Calm - N/A   Overcast
11:54 PM 37.0 °F 33.1 °F 86% 30.16 in 8.0 mi Calm Calm - N/A   Mostly Cloudy